Location: Bodest
(46.3000°N, 22.5667°E)
Time: 11:44:53
(UTC+00:00)

Cosmos 2366 rocket - Pass Details

Date: 16 October 2021
Orbit: 956 x 996 km, 82.9° (Epoch: 02 December)

Event Time Altitude Azimuth Distance (km) Brightness Sun altitude
Rises 16:36:00 0° 196° (SSW) 3,625 7.2 -10.2°
Reaches altitude 10° 16:38:30 10° 199° (SSW) 2,687 6.6 -10.6°
Maximum altitude 16:44:36 65° 281° (WNW) 1,062 4.5 -11.7°
Drops below altitude 10° 16:50:48 10° 3° (N) 2,730 6.3 -12.7°
Sets 16:53:22 0° 7° (N) 3,687 7.0 -13.2°
